| time (UTC) | temp C | wind direction | speed KPH | gust KPH | rain 1hr cm | rain 24hr cm | rain mn cm | humidity % | barometer mb |
| 20260506221549 | 26 | 360 | 35.4 | 45.1 | 0.00 | 0.00 | 0.00 | 17 | 1011.6 |
| 20260506220046 | 26 | 360 | 29.0 | 41.8 | 0.00 | 0.00 | 0.00 | 17 | 1011.5 |
| 20260506214544 | 26 | 360 | 37.0 | 46.7 | 0.00 | 0.00 | 0.00 | 17 | 1011.6 |
| 20260506213051 | 26 | 360 | 22.5 | 40.2 | 0.00 | 0.00 | 0.00 | 18 | 1011.9 |
| 20260506211537 | 26 | 360 | 30.6 | 45.1 | 0.00 | 0.00 | 0.00 | 17 | 1011.9 |
| 20260506210045 | 26 | 360 | 25.7 | 43.5 | 0.00 | 0.00 | 0.00 | 18 | 1012.3 |
| 20260506204545 | 25 | 360 | 19.3 | 43.5 | 0.00 | 0.00 | 0.00 | 19 | 1012.3 |
| 20260506203036 | 26 | 244 | 22.5 | 41.8 | 0.00 | 0.00 | 0.00 | 19 | 1012.6 |
| 20260506201543 | 25 | 360 | 20.9 | 32.2 | 0.00 | 0.00 | 0.00 | 21 | 1012.5 |
| 20260506200039 | 25 | 360 | 19.3 | 38.6 | 0.00 | 0.00 | 0.00 | 23 | 1012.7 |
| 20260506194538 | 25 | 360 | 14.5 | 27.4 | 0.00 | 0.00 | 0.00 | 24 | 1013.0 |
| 20260506193038 | 24 | 360 | 9.7 | 38.6 | 0.00 | 0.00 | 0.00 | 25 | 1013.1 |
| 20260506191543 | 25 | 360 | 24.1 | 38.6 | 0.00 | 0.00 | 0.00 | 24 | 1013.3 |
| 20260506190044 | 24 | 360 | 16.1 | 25.7 | 0.00 | 0.00 | 0.00 | 25 | 1013.6 |
| 20260506184550 | 23 | 360 | 16.1 | 38.6 | 0.00 | 0.00 | 0.00 | 25 | 1013.9 |
| 20260506183051 | 23 | 360 | 17.7 | 32.2 | 0.00 | 0.00 | 0.00 | 26 | 1014.0 |
| 20260506181605 | 23 | 360 | 17.7 | 29.0 | 0.00 | 0.00 | 0.00 | 26 | 1014.2 |
| 20260506180037 | 23 | 360 | 9.7 | 24.1 | 0.00 | 0.00 | 0.00 | 28 | 1014.5 |
| 20260506174543 | 23 | 360 | 14.5 | 24.1 | 0.00 | 0.00 | 0.00 | 36 | 1014.7 |
| 20260506173056 | 21 | 360 | 9.7 | 17.7 | 0.00 | 0.00 | 0.00 | 39 | 1014.9 |
| 20260506171540 | 21 | 360 | 14.5 | 24.1 | 0.00 | 0.00 | 0.00 | 41 | 1014.6 |
| 20260506170042 | 21 | 360 | 4.8 | 20.9 | 0.00 | 0.00 | 0.00 | 42 | 1014.7 |
| 20260506164539 | 21 | 360 | 14.5 | 22.5 | 0.00 | 0.00 | 0.00 | 42 | 1014.6 |
| 20260506163039 | 23 | 360 | 16.1 | 27.4 | 0.00 | 0.00 | 0.00 | 34 | 1014.6 |
| 20260506161546 | 22 | 360 | 12.9 | 24.1 | 0.00 | 0.00 | 0.00 | 29 | 1014.6 |
| 20260506160051 | 22 | 360 | 17.7 | 24.1 | 0.00 | 0.00 | 0.00 | 28 | 1014.3 |
| 20260506154547 | 21 | 360 | 14.5 | 22.5 | 0.00 | 0.00 | 0.00 | 31 | 1014.2 |
| 20260506153055 | 21 | 360 | 11.3 | 22.5 | 0.00 | 0.00 | 0.00 | 36 | 1014.1 |
| 20260506151543 | 20 | 360 | 17.7 | 25.7 | 0.00 | 0.00 | 0.00 | 37 | 1013.9 |
| 20260506150044 | 21 | 360 | 24.1 | 33.8 | 0.00 | 0.00 | 0.00 | 35 | 1013.6 |
| 20260506144537 | 20 | 360 | 14.5 | 20.9 | 0.00 | 0.00 | 0.00 | 37 | 1013.6 |
| 20260506143042 | 19 | 360 | 11.3 | 17.7 | 0.00 | 0.00 | 0.00 | 39 | 1013.6 |
| 20260506141540 | 18 | 360 | 12.9 | 19.3 | 0.00 | 0.00 | 0.00 | 38 | 1013.6 |
| 20260506140038 | 18 | 360 | 14.5 | 20.9 | 0.00 | 0.00 | 0.00 | 36 | 1013.3 |
| 20260506134537 | 18 | 360 | 17.7 | 27.4 | 0.00 | 0.00 | 0.00 | 37 | 1013.1 |
| 20260506133038 | 18 | 360 | 17.7 | 24.1 | 0.00 | 0.00 | 0.00 | 36 | 1012.9 |
| 20260506131551 | 18 | 360 | 16.1 | 20.9 | 0.00 | 0.00 | 0.00 | 36 | 1012.7 |
| 20260506130043 | 18 | 360 | 12.9 | 17.7 | 0.00 | 0.00 | 0.00 | 37 | 1012.7 |
| 20260506124543 | 18 | 360 | 6.4 | 8.0 | 0.00 | 0.00 | 0.00 | 38 | 1012.4 |
| 20260506123038 | 18 | 360 | 4.8 | 9.7 | 0.00 | 0.00 | 0.00 | 35 | 1012.4 |
| 20260506121539 | 18 | 360 | 3.2 | 8.0 | 0.00 | 0.00 | 0.00 | 36 | 1012.2 |
| 20260506120040 | 17 | 360 | 8.0 | 9.7 | 0.00 | 0.00 | 0.00 | 38 | 1011.9 |
| 20260506114537 | 18 | 360 | 12.9 | 17.7 | 0.00 | 0.00 | 0.00 | 36 | 1011.7 |
| 20260506113044 | 17 | 360 | 11.3 | 14.5 | 0.00 | 0.00 | 0.00 | 38 | 1011.7 |
| 20260506111540 | 18 | 360 | 9.7 | 14.5 | 0.00 | 0.00 | 0.00 | 34 | 1011.6 |
| 20260506110038 | 18 | 360 | 12.9 | 19.3 | 0.00 | 0.00 | 0.00 | 32 | 1011.6 |
| 20260506104537 | 18 | 360 | 11.3 | 17.7 | 0.00 | 0.00 | 0.00 | 34 | 1011.4 |
| 20260506103052 | 19 | 360 | 14.5 | 19.3 | 0.00 | 0.00 | 0.00 | 32 | 1011.2 |
| 20260506101544 | 20 | 360 | 17.7 | 20.9 | 0.00 | 0.00 | 0.00 | 31 | 1011.0 |
| 20260506100041 | 19 | 360 | 16.1 | 20.9 | 0.00 | 0.00 | 0.00 | 33 | 1011.1 |
| 20260506094541 | 18 | 360 | 16.1 | 20.9 | 0.00 | 0.00 | 0.00 | 36 | 1010.9 |
| 20260506093038 | 19 | 360 | 14.5 | 19.3 | 0.00 | 0.00 | 0.00 | 37 | 1010.9 |
| 20260506091543 | 19 | 360 | 12.9 | 19.3 | 0.00 | 0.00 | 0.00 | 37 | 1010.8 |
| 20260506090037 | 20 | 360 | 16.1 | 24.1 | 0.00 | 0.00 | 0.00 | 36 | 1010.6 |
| 20260506084544 | 20 | 360 | 14.5 | 22.5 | 0.00 | 0.00 | 0.00 | 42 | 1010.5 |
| 20260506083036 | 20 | 360 | 11.3 | 16.1 | 0.00 | 0.00 | 0.00 | 45 | 1010.6 |
| 20260506081543 | 19 | 360 | 6.4 | 9.7 | 0.00 | 0.00 | 0.00 | 46 | 1010.6 |
| 20260506073037 | 20 | 360 | 12.9 | 16.1 | 0.00 | 0.00 | 0.00 | 43 | 1010.6 |
| 20260506071537 | 20 | 360 | 8.0 | 14.5 | 0.00 | 0.00 | 0.00 | 44 | 1010.4 |
| 20260506061537 | 21 | 360 | 4.8 | 8.0 | 0.00 | 0.00 | 0.00 | 40 | 1010.2 |
| 20260506044546 | 21 | 0 | 0.0 | 3.2 | 0.00 | 0.00 | 0.00 | 39 | 1009.9 |
| 20260506043043 | 21 | 360 | 3.2 | 4.8 | 0.00 | 0.00 | 0.00 | 38 | 1009.9 |
| 20260506041543 | 22 | 360 | 3.2 | 6.4 | 0.00 | 0.00 | 0.00 | 37 | 1009.8 |
| 20260506040044 | 22 | 360 | 3.2 | 6.4 | 0.00 | 0.00 | 0.00 | 37 | 1009.6 |
| 20260506034557 | 22 | 360 | 3.2 | 9.7 | 0.00 | 0.00 | 0.00 | 37 | 1009.5 |
| 20260506033038 | 22 | 360 | 6.4 | 9.7 | 0.00 | 0.00 | 0.00 | 38 | 1009.2 |
| 20260506031544 | 22 | 360 | 8.0 | 12.9 | 0.00 | 0.00 | 0.00 | 38 | 1009.0 |
| 20260506030044 | 22 | 360 | 6.4 | 9.7 | 0.00 | 0.00 | 0.00 | 37 | 1009.1 |
| 20260506024557 | 21 | 360 | 8.0 | 12.9 | 0.00 | 0.00 | 0.00 | 39 | 1008.8 |
| 20260506023041 | 22 | 360 | 9.7 | 14.5 | 0.00 | 0.00 | 0.00 | 38 | 1008.8 |
| 20260506021541 | 22 | 360 | 9.7 | 14.5 | 0.00 | 0.00 | 0.00 | 36 | 1008.9 |
| 20260506020037 | 23 | 360 | 11.3 | 14.5 | 0.00 | 0.00 | 0.00 | 34 | 1008.7 |
| 20260506014547 | 23 | 360 | 11.3 | 16.1 | 0.00 | 0.00 | 0.00 | 31 | 1008.5 |
| 20260506013100 | 25 | 360 | 12.9 | 17.7 | 0.00 | 0.00 | 0.00 | 29 | 1008.6 |
| 20260506011544 | 25 | 360 | 14.5 | 22.5 | 0.00 | 0.00 | 0.00 | 28 | 1008.5 |
| 20260506010043 | 26 | 360 | 20.9 | 30.6 | 0.00 | 0.00 | 0.00 | 27 | 1008.6 |
| 20260506004538 | 26 | 360 | 22.5 | 37.0 | 0.00 | 0.00 | 0.00 | 27 | 1008.7 |
| 20260506003039 | 26 | 360 | 20.9 | 30.6 | 0.00 | 0.00 | 0.00 | 26 | 1008.7 |
| 20260506001546 | 26 | 360 | 17.7 | 35.4 | 0.00 | 0.00 | 0.00 | 27 | 1008.7 |
| 20260506000044 | 26 | 360 | 22.5 | 37.0 | 0.00 | 0.00 | 0.00 | 26 | 1008.7 |
| 20260505234543 | 26 | 360 | 27.4 | 46.7 | 0.00 | 0.00 | 0.00 | 27 | 1008.8 |
| 20260505233041 | 26 | 360 | 29.0 | 40.2 | 0.00 | 0.00 | 0.00 | 27 | 1008.8 |
| 20260505231541 | 26 | 360 | 30.6 | 43.5 | 0.00 | 0.00 | 0.00 | 28 | 1008.6 |
| 20260505230051 | 25 | 360 | 29.0 | 41.8 | 0.00 | 0.00 | 0.00 | 29 | 1008.7 |
| 20260505224537 | 25 | 360 | 30.6 | 40.2 | 0.00 | 0.00 | 0.00 | 30 | 1009.1 |
| 20260505223055 | 24 | 360 | 30.6 | 41.8 | 0.00 | 0.00 | 0.00 | 31 | 1009.2 |